Regional Weather Roundup
Issued by NWS

Home | Current Version | Previous Version | Graphics & Text | Print | Product List | Glossary On
Versions: 1 2 3 4 5 6 7 8 9 10 11 12 13 14 15 16 17 18 19 20 21 22 23 24 25 26 27 28 29 30 31 32 33 34 35 36 37 38 39 40 41 42 43 44 45 46 47 48 49 50
308
ASUS44 KLIX 251405
RWRLA
LOUISIANA WEATHER ROUNDUP
NATIONAL WEATHER SERVICE NEW ORLEANS LA
900 AM CDT SAT OCT 25 2014

NOTE: "FAIR" INDICATES FEW OR NO CLOUDS BELOW 12,000 FEET WITH NO
      SIGNIFICANT WEATHER AND/OR OBSTRUCTIONS TO VISIBILITY.
      SKY/WX - SKY CONDITION AND SIGNIFICANT WEATHER.
      TMP - AIR TEMPERATURE.    DP   - DEWPOINT TEMPERATURE.
      RH  - RELATIVE HUMIDITY.  PRES - PRESSURE.
      HX  - HEAT INDEX.         WCI  - WIND CHILL INDEX.

*  THESE STATIONS ARE NOT NWS OR FAA STATIONS AND ARE NOT UNDER
   NWS QUALITY CONTROL.

LAZ040-048-061>063-065-066-069-251500-
SOUTHEAST LOUISIANA

CITY           SKY/WX    TMP DP  RH WIND       PRES   REMARKS
N.O. AUDUBON     N/A     67  56  66 MISG        N/A
N.O. INTL ARPT MOSUNNY   68  54  60 NE9       30.15R
N.O. LAKEFRONT SUNNY     66  52  60 NE8       30.16R
N.O. DOWNTOWN* FAIR      63  48  59 N3        30.16R
SLIDELL        SUNNY     57  50  77 N6        30.15R
BATON ROUGE    SUNNY     57  50  77 CALM      30.16R
BOOTHVILLE     SUNNY     70  55  59 NE9       30.14R
BELLE CHASSE   MOSUNNY   60  54  80 VRB3      30.15R
BOGALUSA*      FAIR      56  49  78 CALM      30.17R
NEW ROADS*     FAIR      55  54  94 CALM      30.17R
GONZALES*      FAIR      58  53  85 CALM      30.16R
HAMMOND*       SUNNY     59  50  72 N5        30.18R
HOUMA*         SUNNY     59  54  82 CALM      30.15R
PORT FOURCHON* SUNNY     68  57  68 NE9       30.18R

$$

LAZ041-044-053-054-251500-
SOUTHWEST LOUISIANA

CITY           SKY/WX    TMP DP  RH WIND       PRES   REMARKS
LAKE CHARLES   SUNNY     61  54  77 NE3       30.18R
LAFAYETTE      SUNNY     60  53  77 CALM      30.17R
PATTERSON      SUNNY     61  54  77 CALM      30.19R
SALT POINT       N/A     63  52  67 CALM      30.15R
NEW IBERIA     SUNNY     61  54  77 CALM      30.17R
CHENAULT AIRPK SUNNY     57  54  88 CALM      30.18R

$$

LAZ027-028-251500-
CENTRAL LOUISIANA

CITY           SKY/WX    TMP DP  RH WIND       PRES   REMARKS
FORT POLK      NOT AVBL
ALEXANDRIA INT SUNNY     55  54  96 CALM      30.17R
ALEXANDRIA     SUNNY     54  51  90 CALM      30.17R

$$

LAZ001-002-251500-
NORTHWEST LOUISIANA

CITY           SKY/WX    TMP DP  RH WIND       PRES   REMARKS
SHREVEPORT     SUNNY     62  56  80 SW3       30.16R
BARKSDALE AFB  NOT AVBL
DTN SHREVEPORT SUNNY     62  56  80 CALM      30.17R

$$

LAZ014-016-251500-
NORTHEAST LOUISIANA

CITY           SKY/WX    TMP DP  RH WIND       PRES   REMARKS
MONROE         SUNNY     57  54  89 CALM      30.18R FOG
TALLULAH       SUNNY     58  53  84 S3        30.17R

$$




USA.gov is the U.S. government's official web portal to all federal, state and local government web resources and services.